contact:dominique.lefevre@mio.osupytheas.fr, maurice.libes@osupytheas.fr, didier.mallarino@osupytheas.fr
Project:EMSO http://www.emso-fr.org/EMSO-France
Depth: 2436.0 m
Title:EMSO Ligure Ouest : Data MII capteur CSTAR
DateTime,Latitude,Longitude,Instrument_Serial,Reference_Counts,Signal_Counts,Corrected_Signal_raw_counts,Calculated_Beam_c_inverse_meters,Internal_thermistor_counts
DateTime,Latitude,Longitude,Instrument_Serial,Reference_Counts,Signal_Counts,Corrected_Signal_raw_counts,Calculated_Beam_c_inverse_meters,Internal_thermistor_counts
2021-08-06T00:01:30,42.805,6.029,CST-1368DR,5326,7345,14784,0.219,551
2021-08-06T00:04:31,42.805,6.029,CST-1368DR,5326,7345,14784,0.219,551
2021-08-06T00:07:33,42.805,6.029,CST-1368DR,5326,7345,14785,0.219,551
2021-08-06T00:10:34,42.805,6.029,CST-1368DR,5326,7343,14780,0.220,551
2021-08-06T00:13:36,42.805,6.029,CST-1368DR,5326,7343,14781,0.220,551
2021-08-06T00:16:38,42.805,6.029,CST-1368DR,5326,7343,14780,0.220,551
2021-08-06T00:19:39,42.805,6.029,CST-1368DR,5326,7345,14785,0.219,551
2021-08-06T00:22:41,42.805,6.029,CST-1368DR,5326,7344,14783,0.219,551
2021-08-06T00:25:42,42.805,6.029,CST-1368DR,5326,7344,14783,0.219,551
2021-08-06T00:28:44,42.805,6.029,CST-1368DR,5326,7343,14781,0.220,551
2021-08-06T00:31:45,42.805,6.029,CST-1368DR,5326,7343,14781,0.220,551
2021-08-06T00:34:47,42.805,6.029,CST-1368DR,5326,7344,14782,0.220,551
2021-08-06T00:37:49,42.805,6.029,CST-1368DR,5326,7344,14783,0.219,551
2021-08-06T00:40:50,42.805,6.029,CST-1368DR,5326,7343,14780,0.220,551
2021-08-06T00:43:52,42.805,6.029,CST-1368DR,5326,7343,14781,0.220,551
2021-08-06T00:46:53,42.805,6.029,CST-1368DR,5326,7344,14783,0.219,550
2021-08-06T00:49:55,42.805,6.029,CST-1368DR,5326,7344,14782,0.220,551
2021-08-06T00:52:57,42.805,6.029,CST-1368DR,5326,7343,14781,0.220,551
2021-08-06T00:55:58,42.805,6.029,CST-1368DR,5326,7339,14772,0.222,551
2021-08-06T00:59:00,42.805,6.029,CST-1368DR,5326,7344,14783,0.219,551
2021-08-06T01:02:01,42.805,6.029,CST-1368DR,5326,7345,14784,0.219,551
2021-08-06T01:05:03,42.805,6.029,CST-1368DR,5326,7343,14780,0.220,551
2021-08-06T01:08:04,42.805,6.029,CST-1368DR,5326,7344,14782,0.220,551
2021-08-06T01:11:06,42.805,6.029,CST-1368DR,5326,7343,14780,0.220,551
2021-08-06T01:14:08,42.805,6.029,CST-1368DR,5326,7344,14782,0.220,551
2021-08-06T01:17:09,42.805,6.029,CST-1368DR,5326,7344,14783,0.219,551
2021-08-06T01:20:11,42.805,6.029,CST-1368DR,5326,7344,14782,0.220,551
2021-08-06T01:23:12,42.805,6.029,CST-1368DR,5326,7343,14781,0.220,551
2021-08-06T01:26:14,42.805,6.029,CST-1368DR,5326,7344,14783,0.219,551
2021-08-06T01:29:15,42.805,6.029,CST-1368DR,5326,7344,14782,0.220,551
2021-08-06T01:32:17,42.805,6.029,CST-1368DR,5326,7344,14783,0.219,551
2021-08-06T01:35:19,42.805,6.029,CST-1368DR,5326,7344,14782,0.220,551
2021-08-06T01:38:20,42.805,6.029,CST-1368DR,5326,7343,14780,0.220,551
2021-08-06T01:41:22,42.805,6.029,CST-1368DR,5326,7343,14780,0.220,551
2021-08-06T01:44:23,42.805,6.029,CST-1368DR,5326,7343,14780,0.220,551
2021-08-06T01:47:25,42.805,6.029,CST-1368DR,5326,7344,14783,0.219,551
2021-08-06T01:50:27,42.805,6.029,CST-1368DR,5326,7345,14784,0.219,551
2021-08-06T01:53:28,42.805,6.029,CST-1368DR,5326,7345,14784,0.219,551
2021-08-06T01:56:30,42.805,6.029,CST-1368DR,5326,7345,14784,0.219,551
2021-08-06T01:59:31,42.805,6.029,CST-1368DR,5326,7344,14783,0.219,551
2021-08-06T02:02:33,42.805,6.029,CST-1368DR,5326,7344,14783,0.219,551
2021-08-06T02:05:34,42.805,6.029,CST-1368DR,5326,7344,14782,0.220,551
2021-08-06T02:08:36,42.805,6.029,CST-1368DR,5326,7343,14780,0.220,551
2021-08-06T02:11:38,42.805,6.029,CST-1368DR,5326,7341,14776,0.221,551
2021-08-06T02:14:39,42.805,6.029,CST-1368DR,5326,7344,14783,0.219,551
2021-08-06T02:17:41,42.805,6.029,CST-1368DR,5326,7341,14777,0.221,551
2021-08-06T02:20:42,42.805,6.029,CST-1368DR,5326,7344,14783,0.219,551
2021-08-06T02:23:44,42.805,6.029,CST-1368DR,5326,7344,14782,0.220,551
2021-08-06T02:26:46,42.805,6.029,CST-1368DR,5326,7344,14783,0.219,551
2021-08-06T02:29:47,42.805,6.029,CST-1368DR,5326,7345,14785,0.219,551
2021-08-06T02:32:49,42.805,6.029,CST-1368DR,5326,7345,14784,0.219,551
2021-08-06T02:35:50,42.805,6.029,CST-1368DR,5326,7344,14783,0.219,550
2021-08-06T02:38:52,42.805,6.029,CST-1368DR,5326,7343,14781,0.220,551
2021-08-06T02:41:53,42.805,6.029,CST-1368DR,5326,7343,14780,0.220,551
2021-08-06T02:44:55,42.805,6.029,CST-1368DR,5326,7345,14785,0.219,551
2021-08-06T02:47:57,42.805,6.029,CST-1368DR,5326,7343,14781,0.220,551
2021-08-06T02:50:58,42.805,6.029,CST-1368DR,5326,7344,14783,0.219,551
2021-08-06T02:54:00,42.805,6.029,CST-1368DR,5326,7344,14782,0.220,551
2021-08-06T02:57:01,42.805,6.029,CST-1368DR,5326,7344,14783,0.219,551
2021-08-06T03:00:03,42.805,6.029,CST-1368DR,5326,7344,14783,0.219,551
2021-08-06T03:03:05,42.805,6.029,CST-1368DR,5326,7344,14783,0.219,551
2021-08-06T03:06:06,42.805,6.029,CST-1368DR,5326,7344,14783,0.219,551
2021-08-06T03:09:08,42.805,6.029,CST-1368DR,5326,7344,14782,0.220,551
2021-08-06T03:12:09,42.805,6.029,CST-1368DR,5326,7343,14780,0.220,551
2021-08-06T03:15:11,42.805,6.029,CST-1368DR,5326,7344,14783,0.219,551
2021-08-06T03:18:12,42.805,6.029,CST-1368DR,5326,7344,14783,0.219,551
2021-08-06T03:21:14,42.805,6.029,CST-1368DR,5326,7341,14777,0.221,551
2021-08-06T03:24:16,42.805,6.029,CST-1368DR,5326,7345,14784,0.219,551
2021-08-06T03:27:17,42.805,6.029,CST-1368DR,5326,7344,14783,0.219,551
2021-08-06T03:30:19,42.805,6.029,CST-1368DR,5326,7345,14784,0.219,551
2021-08-06T03:33:20,42.805,6.029,CST-1368DR,5326,7344,14782,0.220,551
2021-08-06T03:36:22,42.805,6.029,CST-1368DR,5326,7344,14783,0.219,551
2021-08-06T03:39:24,42.805,6.029,CST-1368DR,5326,7344,14783,0.219,551
2021-08-06T03:42:25,42.805,6.029,CST-1368DR,5326,7342,14779,0.220,551
2021-08-06T03:45:27,42.805,6.029,CST-1368DR,5326,7343,14780,0.220,551
2021-08-06T03:48:28,42.805,6.029,CST-1368DR,5326,7344,14783,0.219,551
2021-08-06T03:51:30,42.805,6.029,CST-1368DR,5326,7344,14782,0.220,551
2021-08-06T03:54:31,42.805,6.029,CST-1368DR,5326,7344,14783,0.219,551
2021-08-06T03:57:33,42.805,6.029,CST-1368DR,5326,7345,14784,0.219,551
2021-08-06T04:00:35,42.805,6.029,CST-1368DR,5326,7342,14779,0.220,551
2021-08-06T04:03:36,42.805,6.029,CST-1368DR,5326,7343,14781,0.220,551
2021-08-06T04:06:38,42.805,6.029,CST-1368DR,5326,7345,14784,0.219,551
2021-08-06T04:09:39,42.805,6.029,CST-1368DR,5326,7344,14783,0.219,551
2021-08-06T04:12:41,42.805,6.029,CST-1368DR,5326,7345,14784,0.219,551
2021-08-06T04:15:42,42.805,6.029,CST-1368DR,5326,7344,14782,0.220,551
2021-08-06T04:18:44,42.805,6.029,CST-1368DR,5326,7344,14783,0.219,551
2021-08-06T04:21:46,42.805,6.029,CST-1368DR,5326,7345,14784,0.219,551
2021-08-06T04:24:47,42.805,6.029,CST-1368DR,5326,7345,14784,0.219,551
2021-08-06T04:27:49,42.805,6.029,CST-1368DR,5326,7344,14783,0.219,551
2021-08-06T04:30:50,42.805,6.029,CST-1368DR,5326,7344,14782,0.220,551
2021-08-06T04:33:52,42.805,6.029,CST-1368DR,5326,7343,14781,0.220,551
2021-08-06T04:36:54,42.805,6.029,CST-1368DR,5326,7343,14781,0.220,551
2021-08-06T04:39:55,42.805,6.029,CST-1368DR,5326,7343,14780,0.220,551
2021-08-06T04:42:57,42.805,6.029,CST-1368DR,5326,7344,14782,0.220,551
2021-08-06T04:45:58,42.805,6.029,CST-1368DR,5325,7344,14786,0.218,551
2021-08-06T04:49:00,42.805,6.029,CST-1368DR,5326,7345,14784,0.219,551
2021-08-06T04:52:01,42.805,6.029,CST-1368DR,5326,7342,14778,0.221,551
2021-08-06T04:55:03,42.805,6.029,CST-1368DR,5326,7344,14783,0.219,551
2021-08-06T04:58:05,42.805,6.029,CST-1368DR,5326,7344,14783,0.219,551
2021-08-06T05:01:06,42.805,6.029,CST-1368DR,5325,7343,14782,0.220,551
2021-08-06T05:04:08,42.805,6.029,CST-1368DR,5326,7345,14784,0.219,551
2021-08-06T05:07:09,42.805,6.029,CST-1368DR,5326,7344,14783,0.219,551
2021-08-06T05:10:11,42.805,6.029,CST-1368DR,5326,7344,14783,0.219,551
2021-08-06T05:13:13,42.805,6.029,CST-1368DR,5326,7344,14783,0.219,551
2021-08-06T05:16:14,42.805,6.029,CST-1368DR,5326,7340,14775,0.221,551
2021-08-06T05:19:16,42.805,6.029,CST-1368DR,5326,7343,14780,0.220,551
2021-08-06T05:22:17,42.805,6.029,CST-1368DR,5325,7342,14781,0.220,551
2021-08-06T05:25:19,42.805,6.029,CST-1368DR,5325,7343,14782,0.220,551
2021-08-06T05:28:20,42.805,6.029,CST-1368DR,5325,7344,14786,0.218,551
2021-08-06T05:31:22,42.805,6.029,CST-1368DR,5325,7344,14785,0.219,551
2021-08-06T05:34:24,42.805,6.029,CST-1368DR,5326,7343,14780,0.220,551
2021-08-06T05:37:25,42.805,6.029,CST-1368DR,5325,7343,14782,0.220,551
2021-08-06T05:40:27,42.805,6.029,CST-1368DR,5325,7344,14786,0.218,551
2021-08-06T05:43:28,42.805,6.029,CST-1368DR,5325,7344,14785,0.219,551
2021-08-06T05:46:30,42.805,6.029,CST-1368DR,5325,7344,14785,0.219,551
2021-08-06T05:49:31,42.805,6.029,CST-1368DR,5325,7334,14765,0.224,551
2021-08-06T05:52:33,42.805,6.029,CST-1368DR,5325,7341,14779,0.220,551
2021-08-06T05:55:35,42.805,6.029,CST-1368DR,5325,7343,14783,0.219,551
2021-08-06T05:58:36,42.805,6.029,CST-1368DR,5325,7339,14775,0.221,551
2021-08-06T06:01:38,42.805,6.029,CST-1368DR,5325,7343,14783,0.219,551
2021-08-06T06:04:39,42.805,6.029,CST-1368DR,5325,7342,14781,0.220,550
2021-08-06T06:07:41,42.805,6.029,CST-1368DR,5325,7344,14785,0.219,551
2021-08-06T06:10:43,42.805,6.029,CST-1368DR,5325,7342,14781,0.220,551
2021-08-06T06:13:44,42.805,6.029,CST-1368DR,5325,7341,14779,0.220,551
2021-08-06T06:16:46,42.805,6.029,CST-1368DR,5325,7341,14780,0.220,551
2021-08-06T06:19:47,42.805,6.029,CST-1368DR,5325,7342,14782,0.220,551
2021-08-06T06:22:49,42.805,6.029,CST-1368DR,5325,7343,14782,0.220,551
2021-08-06T06:25:50,42.805,6.029,CST-1368DR,5325,7342,14782,0.220,551
2021-08-06T06:28:52,42.805,6.029,CST-1368DR,5325,7343,14783,0.219,551
2021-08-06T06:31:54,42.805,6.029,CST-1368DR,5325,7341,14779,0.220,551
2021-08-06T06:34:55,42.805,6.029,CST-1368DR,5325,7342,14780,0.220,551
2021-08-06T06:37:57,42.805,6.029,CST-1368DR,5325,7342,14781,0.220,551
2021-08-06T06:40:58,42.805,6.029,CST-1368DR,5325,7342,14780,0.220,551
2021-08-06T06:44:00,42.805,6.029,CST-1368DR,5325,7338,14773,0.222,551
2021-08-06T06:47:02,42.805,6.029,CST-1368DR,5325,7341,14779,0.220,551
2021-08-06T06:50:03,42.805,6.029,CST-1368DR,5325,7339,14776,0.221,551
2021-08-06T06:53:05,42.805,6.029,CST-1368DR,5325,7343,14783,0.219,551
2021-08-06T06:56:06,42.805,6.029,CST-1368DR,5325,7342,14781,0.220,551
2021-08-06T06:59:08,42.805,6.029,CST-1368DR,5325,7342,14780,0.220,551
2021-08-06T07:02:09,42.805,6.029,CST-1368DR,5325,7343,14782,0.220,551
2021-08-06T07:05:11,42.805,6.029,CST-1368DR,5325,7344,14785,0.219,551
2021-08-06T07:08:13,42.805,6.029,CST-1368DR,5325,7343,14782,0.220,551
2021-08-06T07:11:14,42.805,6.029,CST-1368DR,5325,7341,14780,0.220,551
2021-08-06T07:14:16,42.805,6.029,CST-1368DR,5325,7342,14780,0.220,551
2021-08-06T07:17:17,42.805,6.029,CST-1368DR,5325,7343,14783,0.219,551
2021-08-06T07:20:19,42.805,6.029,CST-1368DR,5325,7341,14778,0.221,551
2021-08-06T07:23:21,42.805,6.029,CST-1368DR,5325,7342,14782,0.220,551
2021-08-06T07:26:22,42.805,6.029,CST-1368DR,5325,7342,14781,0.220,551
2021-08-06T07:29:24,42.805,6.029,CST-1368DR,5325,7343,14782,0.220,551
2021-08-06T07:32:25,42.805,6.029,CST-1368DR,5325,7342,14781,0.220,551
2021-08-06T07:35:27,42.805,6.029,CST-1368DR,5325,7340,14778,0.221,551
2021-08-06T07:38:28,42.805,6.029,CST-1368DR,5325,7341,14779,0.220,551
2021-08-06T07:41:30,42.805,6.029,CST-1368DR,5325,7341,14779,0.220,551
2021-08-06T07:44:32,42.805,6.029,CST-1368DR,5325,7339,14775,0.221,551
2021-08-06T07:47:33,42.805,6.029,CST-1368DR,5325,7340,14776,0.221,551
2021-08-06T07:50:35,42.805,6.029,CST-1368DR,5325,7342,14780,0.220,551
2021-08-06T07:53:36,42.805,6.029,CST-1368DR,5325,7339,14774,0.222,551
2021-08-06T07:56:38,42.805,6.029,CST-1368DR,5325,7341,14780,0.220,551
2021-08-06T07:59:40,42.805,6.029,CST-1368DR,5325,7342,14781,0.220,551
2021-08-06T08:02:41,42.805,6.029,CST-1368DR,5325,7341,14779,0.220,551
2021-08-06T08:05:43,42.805,6.029,CST-1368DR,5325,7340,14778,0.221,551
2021-08-06T08:08:44,42.805,6.029,CST-1368DR,5325,7342,14782,0.220,551
2021-08-06T08:11:46,42.805,6.029,CST-1368DR,5325,7342,14781,0.220,551
2021-08-06T08:14:47,42.805,6.029,CST-1368DR,5325,7339,14775,0.221,551
2021-08-06T08:17:49,42.805,6.029,CST-1368DR,5325,7341,14779,0.220,551
2021-08-06T08:20:51,42.805,6.029,CST-1368DR,5325,7342,14780,0.220,551
2021-08-06T08:23:52,42.805,6.029,CST-1368DR,5325,7341,14779,0.220,551
2021-08-06T08:26:54,42.805,6.029,CST-1368DR,5325,7341,14779,0.220,551
2021-08-06T08:29:55,42.805,6.029,CST-1368DR,5325,7342,14781,0.220,551
2021-08-06T08:32:57,42.805,6.029,CST-1368DR,5325,7342,14781,0.220,551
2021-08-06T08:35:58,42.805,6.029,CST-1368DR,5325,7339,14775,0.221,551
2021-08-06T08:39:00,42.805,6.029,CST-1368DR,5325,7342,14781,0.220,551
2021-08-06T08:42:02,42.805,6.029,CST-1368DR,5325,7340,14776,0.221,551
2021-08-06T08:45:03,42.805,6.029,CST-1368DR,5325,7335,14767,0.224,550
2021-08-06T08:48:05,42.805,6.029,CST-1368DR,5325,7342,14780,0.220,551
2021-08-06T08:51:06,42.805,6.029,CST-1368DR,5325,7341,14780,0.220,551
2021-08-06T08:54:08,42.805,6.029,CST-1368DR,5325,7342,14781,0.220,551
2021-08-06T08:57:10,42.805,6.029,CST-1368DR,5325,7342,14781,0.220,551
2021-08-06T09:00:11,42.805,6.029,CST-1368DR,5325,7342,14780,0.220,551
2021-08-06T09:03:13,42.805,6.029,CST-1368DR,5325,7341,14779,0.220,551
2021-08-06T09:06:14,42.805,6.029,CST-1368DR,5325,7340,14777,0.221,551
2021-08-06T09:09:16,42.805,6.029,CST-1368DR,5325,7339,14775,0.221,551
2021-08-06T09:12:17,42.805,6.029,CST-1368DR,5325,7341,14779,0.220,551
2021-08-06T09:15:19,42.805,6.029,CST-1368DR,5325,7340,14778,0.221,550
2021-08-06T09:18:21,42.805,6.029,CST-1368DR,5325,7341,14779,0.220,551
2021-08-06T09:21:22,42.805,6.029,CST-1368DR,5325,7342,14780,0.220,551
2021-08-06T09:24:24,42.805,6.029,CST-1368DR,5325,7340,14778,0.221,551
2021-08-06T09:27:25,42.805,6.029,CST-1368DR,5325,7341,14779,0.220,551
2021-08-06T09:30:27,42.805,6.029,CST-1368DR,5325,7338,14774,0.222,551
2021-08-06T09:33:29,42.805,6.029,CST-1368DR,5325,7341,14780,0.220,551
2021-08-06T09:36:30,42.805,6.029,CST-1368DR,5325,7340,14778,0.221,551
2021-08-06T09:39:32,42.805,6.029,CST-1368DR,5325,7341,14779,0.220,551
2021-08-06T09:42:33,42.805,6.029,CST-1368DR,5325,7340,14777,0.221,551
2021-08-06T09:45:35,42.805,6.029,CST-1368DR,5325,7342,14781,0.220,551
2021-08-06T09:48:36,42.805,6.029,CST-1368DR,5325,7340,14776,0.221,551
2021-08-06T09:51:38,42.805,6.029,CST-1368DR,5325,7341,14779,0.220,551
2021-08-06T09:54:40,42.805,6.029,CST-1368DR,5325,7342,14780,0.220,551
2021-08-06T09:57:41,42.805,6.029,CST-1368DR,5325,7342,14780,0.220,551
2021-08-06T10:00:43,42.805,6.029,CST-1368DR,5325,7342,14780,0.220,550
2021-08-06T10:03:44,42.805,6.029,CST-1368DR,5325,7341,14780,0.220,551
2021-08-06T10:06:46,42.805,6.029,CST-1368DR,5325,7340,14776,0.221,551
2021-08-06T10:09:48,42.805,6.029,CST-1368DR,5325,7341,14779,0.220,551
2021-08-06T10:12:49,42.805,6.029,CST-1368DR,5325,7340,14777,0.221,551
2021-08-06T10:15:51,42.805,6.029,CST-1368DR,5325,7341,14780,0.220,551
2021-08-06T10:18:52,42.805,6.029,CST-1368DR,5325,7340,14778,0.221,551
2021-08-06T10:21:54,42.805,6.029,CST-1368DR,5325,7338,14773,0.222,551
2021-08-06T10:24:55,42.805,6.029,CST-1368DR,5325,7340,14777,0.221,551
2021-08-06T10:27:57,42.805,6.029,CST-1368DR,5325,7340,14776,0.221,551
2021-08-06T10:30:59,42.805,6.029,CST-1368DR,5325,7340,14777,0.221,551
2021-08-06T10:34:00,42.805,6.029,CST-1368DR,5325,7339,14774,0.222,551
2021-08-06T10:37:02,42.805,6.029,CST-1368DR,5325,7341,14779,0.220,551
2021-08-06T10:40:03,42.805,6.029,CST-1368DR,5325,7341,14779,0.220,551
2021-08-06T10:43:05,42.805,6.029,CST-1368DR,5325,7341,14779,0.220,551
2021-08-06T10:46:06,42.805,6.029,CST-1368DR,5325,7340,14778,0.221,551
2021-08-06T10:49:08,42.805,6.029,CST-1368DR,5325,7341,14780,0.220,551
2021-08-06T10:52:10,42.805,6.029,CST-1368DR,5325,7341,14779,0.220,551
2021-08-06T10:55:11,42.805,6.029,CST-1368DR,5325,7341,14778,0.221,551
2021-08-06T10:58:13,42.805,6.029,CST-1368DR,5325,7341,14779,0.220,551
2021-08-06T11:01:14,42.805,6.029,CST-1368DR,5325,7340,14776,0.221,551
2021-08-06T11:04:16,42.805,6.029,CST-1368DR,5325,7340,14777,0.221,551
2021-08-06T11:07:18,42.805,6.029,CST-1368DR,5325,7341,14779,0.220,551
2021-08-06T11:10:19,42.805,6.029,CST-1368DR,5325,7341,14780,0.220,551
2021-08-06T11:13:21,42.805,6.029,CST-1368DR,5325,7337,14772,0.222,551
2021-08-06T11:16:22,42.805,6.029,CST-1368DR,5325,7341,14779,0.220,551
2021-08-06T11:19:24,42.805,6.029,CST-1368DR,5325,7340,14778,0.221,551
2021-08-06T11:22:25,42.805,6.029,CST-1368DR,5325,7339,14775,0.221,551
2021-08-06T11:25:27,42.805,6.029,CST-1368DR,5325,7341,14779,0.220,551
2021-08-06T11:28:29,42.805,6.029,CST-1368DR,5325,7340,14778,0.221,551
2021-08-06T11:31:30,42.805,6.029,CST-1368DR,5325,7339,14776,0.221,551
2021-08-06T11:34:32,42.805,6.029,CST-1368DR,5325,7341,14778,0.221,551
2021-08-06T11:37:33,42.805,6.029,CST-1368DR,5325,7341,14779,0.220,551
2021-08-06T11:40:35,42.805,6.029,CST-1368DR,5325,7341,14778,0.221,551
2021-08-06T11:43:37,42.805,6.029,CST-1368DR,5325,7340,14778,0.221,551
2021-08-06T11:46:38,42.805,6.029,CST-1368DR,5325,7339,14776,0.221,551
2021-08-06T11:49:40,42.805,6.029,CST-1368DR,5325,7342,14781,0.220,551
2021-08-06T11:52:41,42.805,6.029,CST-1368DR,5325,7339,14775,0.221,551
2021-08-06T11:55:43,42.805,6.029,CST-1368DR,5325,7342,14781,0.220,550
2021-08-06T11:58:44,42.805,6.029,CST-1368DR,5325,7341,14779,0.220,551
2021-08-06T12:01:46,42.805,6.029,CST-1368DR,5325,7342,14780,0.220,551
2021-08-06T12:04:48,42.805,6.029,CST-1368DR,5324,7341,14782,0.220,551
2021-08-06T12:07:49,42.805,6.029,CST-1368DR,5324,7341,14781,0.220,551
2021-08-06T12:10:51,42.805,6.029,CST-1368DR,5325,7341,14778,0.221,551
2021-08-06T12:13:52,42.805,6.029,CST-1368DR,5324,7341,14781,0.220,551
2021-08-06T12:16:54,42.805,6.029,CST-1368DR,5324,7341,14783,0.219,551
2021-08-06T12:19:55,42.805,6.029,CST-1368DR,5324,7340,14781,0.220,551
2021-08-06T12:22:57,42.805,6.029,CST-1368DR,5325,7341,14779,0.220,551
2021-08-06T12:25:59,42.805,6.029,CST-1368DR,5325,7340,14778,0.221,551
2021-08-06T12:29:00,42.805,6.029,CST-1368DR,5325,7341,14780,0.220,551
2021-08-06T12:32:02,42.805,6.029,CST-1368DR,5324,7341,14783,0.219,551
2021-08-06T12:35:03,42.805,6.029,CST-1368DR,5324,7342,14783,0.219,551
2021-08-06T12:38:05,42.805,6.029,CST-1368DR,5324,7341,14782,0.220,551
2021-08-06T12:41:07,42.805,6.029,CST-1368DR,5325,7341,14779,0.220,551
2021-08-06T12:44:08,42.805,6.029,CST-1368DR,5324,7339,14779,0.220,551
2021-08-06T12:47:10,42.805,6.029,CST-1368DR,5324,7341,14782,0.220,551
2021-08-06T12:50:11,42.805,6.029,CST-1368DR,5324,7339,14779,0.220,551
2021-08-06T12:53:13,42.805,6.029,CST-1368DR,5324,7341,14782,0.220,551
2021-08-06T12:56:14,42.805,6.029,CST-1368DR,5324,7341,14781,0.220,551
2021-08-06T12:59:16,42.805,6.029,CST-1368DR,5324,7341,14783,0.219,551
2021-08-06T13:02:18,42.805,6.029,CST-1368DR,5324,7341,14783,0.219,551
2021-08-06T13:05:19,42.805,6.029,CST-1368DR,5324,7341,14782,0.220,551
2021-08-06T13:08:21,42.805,6.029,CST-1368DR,5324,7341,14782,0.220,551
2021-08-06T13:11:22,42.805,6.029,CST-1368DR,5324,7342,14784,0.219,551
2021-08-06T13:14:24,42.805,6.029,CST-1368DR,5324,7340,14780,0.220,551
2021-08-06T13:17:26,42.805,6.029,CST-1368DR,5324,7339,14779,0.220,551
2021-08-06T13:20:27,42.805,6.029,CST-1368DR,5324,7341,14782,0.220,551
2021-08-06T13:23:29,42.805,6.029,CST-1368DR,5324,7341,14782,0.220,551
2021-08-06T13:26:30,42.805,6.029,CST-1368DR,5324,7337,14774,0.222,551
2021-08-06T13:29:32,42.805,6.029,CST-1368DR,5324,7341,14783,0.219,551
2021-08-06T13:32:33,42.805,6.029,CST-1368DR,5324,7341,14782,0.220,551
2021-08-06T13:35:35,42.805,6.029,CST-1368DR,5324,7339,14778,0.221,551
2021-08-06T13:38:37,42.805,6.029,CST-1368DR,5324,7341,14781,0.220,551
2021-08-06T13:41:38,42.805,6.029,CST-1368DR,5324,7341,14783,0.219,551
2021-08-06T13:44:40,42.805,6.029,CST-1368DR,5324,7339,14778,0.221,551
2021-08-06T13:47:41,42.805,6.029,CST-1368DR,5324,7339,14778,0.221,551
2021-08-06T13:50:43,42.805,6.029,CST-1368DR,5324,7338,14776,0.221,551
2021-08-06T13:53:44,42.805,6.029,CST-1368DR,5324,7338,14775,0.221,551
2021-08-06T13:56:46,42.805,6.029,CST-1368DR,5324,7341,14783,0.219,551
2021-08-06T13:59:48,42.805,6.029,CST-1368DR,5324,7340,14780,0.220,551
2021-08-06T14:02:49,42.805,6.029,CST-1368DR,5325,7341,14780,0.220,550
2021-08-06T14:05:51,42.805,6.029,CST-1368DR,5324,7341,14781,0.220,551
2021-08-06T14:08:52,42.805,6.029,CST-1368DR,5324,7341,14782,0.220,551
2021-08-06T14:11:54,42.805,6.029,CST-1368DR,5324,7340,14779,0.220,551
2021-08-06T14:14:56,42.805,6.029,CST-1368DR,5324,7341,14781,0.220,551
2021-08-06T14:17:57,42.805,6.029,CST-1368DR,5324,7341,14782,0.220,551
2021-08-06T14:20:59,42.805,6.029,CST-1368DR,5324,7341,14781,0.220,551
2021-08-06T14:24:00,42.805,6.029,CST-1368DR,5324,7338,14776,0.221,551
2021-08-06T14:27:02,42.805,6.029,CST-1368DR,5324,7341,14782,0.220,551
2021-08-06T14:30:03,42.805,6.029,CST-1368DR,5324,7340,14779,0.220,551
2021-08-06T14:33:05,42.805,6.029,CST-1368DR,5324,7340,14781,0.220,551
2021-08-06T14:36:07,42.805,6.029,CST-1368DR,5324,7340,14780,0.220,551
2021-08-06T14:39:08,42.805,6.029,CST-1368DR,5324,7340,14781,0.220,551
2021-08-06T14:42:10,42.805,6.029,CST-1368DR,5324,7339,14778,0.221,551
2021-08-06T14:45:11,42.805,6.029,CST-1368DR,5324,7341,14781,0.220,551
2021-08-06T14:48:13,42.805,6.029,CST-1368DR,5324,7340,14781,0.220,551
2021-08-06T14:51:15,42.805,6.029,CST-1368DR,5324,7340,14779,0.220,551
2021-08-06T14:54:16,42.805,6.029,CST-1368DR,5324,7341,14781,0.220,551
2021-08-06T14:57:18,42.805,6.029,CST-1368DR,5324,7341,14781,0.220,551
2021-08-06T15:00:19,42.805,6.029,CST-1368DR,5324,7340,14779,0.220,551
2021-08-06T15:03:21,42.805,6.029,CST-1368DR,5324,7340,14781,0.220,551
2021-08-06T15:06:22,42.805,6.029,CST-1368DR,5324,7340,14779,0.220,551
2021-08-06T15:09:24,42.805,6.029,CST-1368DR,5324,7339,14777,0.221,551
2021-08-06T15:12:26,42.805,6.029,CST-1368DR,5324,7340,14781,0.220,551
2021-08-06T15:15:27,42.805,6.029,CST-1368DR,5324,7340,14781,0.220,551
2021-08-06T15:18:29,42.805,6.029,CST-1368DR,5324,7338,14777,0.221,551
2021-08-06T15:21:30,42.805,6.029,CST-1368DR,5324,7340,14781,0.220,551
2021-08-06T15:24:32,42.805,6.029,CST-1368DR,5324,7341,14781,0.220,551
2021-08-06T15:27:33,42.805,6.029,CST-1368DR,5324,7340,14779,0.220,551
2021-08-06T15:30:35,42.805,6.029,CST-1368DR,5324,7339,14778,0.221,551
2021-08-06T15:33:37,42.805,6.029,CST-1368DR,5324,7340,14781,0.220,551
2021-08-06T15:36:38,42.805,6.029,CST-1368DR,5324,7340,14780,0.220,551
2021-08-06T15:39:40,42.805,6.029,CST-1368DR,5324,7338,14777,0.221,551
2021-08-06T15:42:41,42.805,6.029,CST-1368DR,5324,7338,14777,0.221,551
2021-08-06T15:45:43,42.805,6.029,CST-1368DR,5324,7340,14781,0.220,551
2021-08-06T15:48:45,42.805,6.029,CST-1368DR,5324,7339,14777,0.221,551
2021-08-06T15:51:46,42.805,6.029,CST-1368DR,5324,7340,14780,0.220,551
2021-08-06T15:54:48,42.805,6.029,CST-1368DR,5324,7339,14777,0.221,551
2021-08-06T15:57:49,42.805,6.029,CST-1368DR,5324,7341,14782,0.220,551
2021-08-06T16:00:51,42.805,6.029,CST-1368DR,5324,7340,14781,0.220,551
2021-08-06T16:03:52,42.805,6.029,CST-1368DR,5324,7339,14778,0.221,551
2021-08-06T16:06:54,42.805,6.029,CST-1368DR,5324,7340,14781,0.220,551
2021-08-06T16:09:56,42.805,6.029,CST-1368DR,5324,7339,14778,0.221,550
2021-08-06T16:12:57,42.805,6.029,CST-1368DR,5324,7339,14779,0.220,551
2021-08-06T16:15:59,42.805,6.029,CST-1368DR,5324,7339,14778,0.221,551
2021-08-06T16:19:00,42.805,6.029,CST-1368DR,5324,7341,14782,0.220,551
2021-08-06T16:22:02,42.805,6.029,CST-1368DR,5324,7341,14781,0.220,551
2021-08-06T16:25:03,42.805,6.029,CST-1368DR,5324,7341,14782,0.220,551
2021-08-06T16:28:05,42.805,6.029,CST-1368DR,5324,7341,14782,0.220,551
2021-08-06T16:31:07,42.805,6.029,CST-1368DR,5324,7340,14779,0.220,551
2021-08-06T16:34:08,42.805,6.029,CST-1368DR,5324,7340,14781,0.220,551
2021-08-06T16:37:10,42.805,6.029,CST-1368DR,5324,7340,14780,0.220,551
2021-08-06T16:40:11,42.805,6.029,CST-1368DR,5324,7339,14779,0.220,551
2021-08-06T16:43:13,42.805,6.029,CST-1368DR,5324,7339,14778,0.221,551
2021-08-06T16:46:15,42.805,6.029,CST-1368DR,5324,7340,14781,0.220,551
2021-08-06T16:49:16,42.805,6.029,CST-1368DR,5324,7339,14779,0.220,551
2021-08-06T16:52:18,42.805,6.029,CST-1368DR,5324,7338,14776,0.221,551